Location: Rumah Apan
(2.7833°N, 113.9500°E)
Time: 23:45:05
(UTC+00:00)

CZ-4 R/B - Pass Details

Date: 25 July 2021
Orbit: 529 x 598 km, 97.8° (Epoch: 22 September)

Event Time Altitude Azimuth Distance (km) Brightness Sun altitude
Exits shadow 11:40:43 - 174° (S) 2,313 4.2 -15.5°
Reaches altitude 10° 11:41:48 10° 176° (S) 1,867 3.8 -15.7°
Maximum altitude 11:45:49 68° 258° (WSW) 622 1.7 -16.6°
Drops below altitude 10° 11:49:55 10° 342° (NNW) 1,899 4.6 -17.6°
Sets 11:52:06 0° 344° (NNW) 2,805 5.5 -18.1°
